Location: Unspecified
(0.0000°N, 0.0000°E)
Time: 11:12:53
(UTC+00:00)

Vanguard 2 - Pass Details

Date: 26 November 2019
Orbit: 553 x 2938 km, 32.9° (Epoch: 14 December)

Event Time Altitude Azimuth Distance (km) Brightness Sun altitude
Rises 14:55:24 0° 292° (WNW) 2,806 10.9 39.5°
Reaches altitude 10° 14:57:48 10° 284° (WNW) 1,833 10.2 39.0°
Maximum altitude 15:01:30 39° 214° (SSW) 841 9.3 38.2°
Drops below altitude 10° 15:05:33 10° 143° (SE) 1,991 9.7 37.3°
Sets 15:08:15 0° 136° (SE) 3,090 10.5 36.7°
